APSTAR 6

Last updated on Jan. 26, 2020, 4:40 a.m. UTC

1 28638U 05012A   20025.73228117 -.00000092  00000-0  00000+0 0  9996
2 28638   1.3243  93.5717 0006350 231.7554 225.7402  1.00272118 79005
UTC
Height (km)
Latitude
Longitude
Inclination
Orbital Period
UTC large
Height (km)
Speed (km/s)
/
Latitude / Longitude
Inclination (degrees)
Orbital Period (minutes)
Azimuth
Elevation
Range (km)
Doppler Factor
iOS Compass Heading
iOS Angle

Next 30 passes for location: Hong Kong

Rise time Rise Azimuth (degrees) Set time Set Azimuth (degrees) Duration Max altitude (degrees)

No matching passes for this satellites